This is the latest recevied weather packets stored in our database for station/object PU5BHV. If no packets are shown the sender has not sent any weather packets the latest 10 day(s).
| Time | Temp. | Humidity | Pressure | Rain* | Wind** | Luminosity | Snow |
|---|---|---|---|---|---|---|---|
| 1777324601 | 18.89° C | 79% | 1013.6 hPa | 0 mm | - | 0 W/m² | - |
| 1777324299 | 18.89° C | 78% | 1013.7 hPa | 0 mm | - | 0 W/m² | - |
| 1777323996 | 19.44° C | 78% | 1013.4 hPa | 0 mm | - | 0 W/m² | - |
| 1777323693 | 20° C | 77% | 1013.5 hPa | 0 mm | - | 0 W/m² | - |
| 1777323390 | 20° C | 76% | 1013.4 hPa | 0 mm | - | 0 W/m² | - |
| 1777323088 | 20.56° C | 75% | 1013.4 hPa | 0 mm | - | 1 W/m² | - |
| 1777322786 | 20.56° C | 73% | 1013.4 hPa | 0 mm | - | 3 W/m² | - |
| 1777322484 | 20.56° C | 74% | 1013.4 hPa | 0 mm | - | 4 W/m² | - |
| 1777322181 | 20.56° C | 72% | 1013.3 hPa | 0 mm | - | 8 W/m² | - |
| 1777321878 | 21.67° C | 71% | 1013.3 hPa | 0 mm | - | 9 W/m² | - |
| 1777321574 | 22.22° C | 70% | 1012.9 hPa | 0 mm | - | 12 W/m² | - |
| 1777321271 | 22.78° C | 68% | 1013 hPa | 0 mm | - | 14 W/m² | - |
| 1777320968 | 22.78° C | 68% | 1013 hPa | 0 mm | - | 17 W/m² | - |
| 1777320666 | 23.33° C | 65% | 1013 hPa | 0 mm | - | 21 W/m² | - |
| 1777320363 | 23.89° C | 62% | 1012.7 hPa | 0 mm | - | 25 W/m² | - |
| 1777320059 | 26.11° C | 55% | 1012.7 hPa | 0 mm | - | 34 W/m² | - |
| 1777319756 | 26.11° C | 57% | 1012.8 hPa | 0 mm | - | 71 W/m² | - |
| 1777319454 | 25.56° C | 58% | 1012.7 hPa | 0 mm | - | 80 W/m² | - |
| 1777319150 | 25.56° C | 56% | 1012.5 hPa | 0 mm | - | 91 W/m² | - |
| 1777318848 | 26.67° C | 56% | 1012.5 hPa | 0 mm | - | 51 W/m² | - |
| 1777318544 | 27.22° C | 53% | 1012.5 hPa | 0 mm | - | 93 W/m² | - |
| 1777318241 | 26.11° C | 50% | 1012.4 hPa | 0 mm | - | 114 W/m² | - |
| 1777317938 | 26.11° C | 51% | 1012.5 hPa | 0 mm | - | 118 W/m² | - |
| 1777317635 | 27.22° C | 50% | 1012.2 hPa | 0 mm | - | 74 W/m² | - |
| 1777317333 | 27.78° C | 46% | 1012.3 hPa | 0 mm | - | 111 W/m² | - |
* Rain latest hour (hover to see other rain measurements)
** Current wind speed in m/s (hover to see current wind gust speed)